Regional Weather Roundup
Issued by NWS

Home | Current Version | Previous Version | Text Only | Print | Product List | Glossary On
Versions: 1 2 3 4 5 6 7 8 9 10 11 12 13 14 15 16 17 18 19 20 21 22 23 24 25 26 27 28 29 30 31 32 33 34 35 36 37 38 39 40 41 42 43 44 45 46 47 48 49 50
000
ASUS43 KTOP 022359
RWRKS

WEATHER ROUNDUP FOR KANSAS
NATIONAL WEATHER SERVICE GOODLAND KS
700 PM CDT SUN AUG 02 2015

NOTE:  "FAIR" INDICATES FEW OR NO CLOUDS BELOW 12,000 FEET WITH NO
SIGNIFICANT WEATHER AND/OR OBSTRUCTIONS TO VISIBILITY.

KSZ001>006-013>018-027>032-041>047-030100-
NORTHWEST KANSAS

CITY           SKY/WX    TMP DP  RH WIND       PRES   REMARKS
GOODLAND       MOSUNNY   92  47  21 SE5       29.94F
6HR MIN TEMP:  89; 6HR MAX TEMP:  95;

HAYS           SUNNY     93  63  36 S9        29.86F
HILL CITY      MOSUNNY   94  59  31 SE5       29.87S
6HR MIN TEMP:  92; 6HR MAX TEMP:  97;

RUSSELL        SUNNY     93  66  40 S9        29.84F HX  96
6HR MIN TEMP:  91; 6HR MAX TEMP:  97;

$$

KSZ061>065-074>080-084>089-030100-
SOUTHWEST KANSAS

CITY           SKY/WX    TMP DP  RH WIND       PRES   REMARKS
DODGE CITY     SUNNY     90  62  39 SE7       29.89F
6HR MIN TEMP:  86; 6HR MAX TEMP:  93;

ELKHART          N/A     87  66  49 E8          N/A
GARDEN CITY    SUNNY     91  60  35 SE9       29.90F
6HR MIN TEMP:  85; 6HR MAX TEMP:  92;

GREAT BEND     SUNNY     91  66  43 SE10      29.86S
LIBERAL        SUNNY     91  64  40 E9        29.89F
$$

KSZ066>073-081>083-090>101-030100-
SOUTHEAST KANSAS

CITY           SKY/WX    TMP DP  RH WIND       PRES   REMARKS
CHANUTE        SUNNY     89  63  41 SW14      29.88F
6HR MIN TEMP:  89; 6HR MAX TEMP:  94;

COFFEYVILLE    SUNNY     90  66  45 S10       29.87F
6HR MIN TEMP:  90; 6HR MAX TEMP:  94;

HUTCHINSON     MOSUNNY   90  70  51 S9        29.87F HX  95
6HR MIN TEMP:  89; 6HR MAX TEMP:  92;

MEDICINE LODGE   N/A     89  68  49 S6        29.86F
NEWTON         SUNNY     88  66  48 S10       29.92S
PARSONS        SUNNY     90  67  46 SW7       29.89F
6HR MIN TEMP:  89; 6HR MAX TEMP:  93;

WICHITA INTL   MOSUNNY   88  69  53 S12       29.87F
6HR MIN TEMP:  87; 6HR MAX TEMP:  91;

WICHITA JABRA  SUNNY     88  68  51 S9        29.88F
6HR MIN TEMP:  88; 6HR MAX TEMP:  91;

WICHITA MCCONL SUNNY     87  67  51 S12       29.88F
WINFIELD       SUNNY     86  67  52 S9        29.89F
6HR MIN TEMP:  86; 6HR MAX TEMP:  89;

$$

KSZ007>012-019>026-033>040-048>060-102>105-030100-
NORTHEAST KANSAS

CITY           SKY/WX    TMP DP  RH WIND       PRES   REMARKS
CONCORDIA      PTSUNNY   93  66  40 S7        29.83S HX  96
6HR MIN TEMP:  91; 6HR MAX TEMP:  97;

EMPORIA        SUNNY     89  69  51 SW10      29.87F
6HR MIN TEMP:  88; 6HR MAX TEMP:  91;

LAWRENCE       SUNNY     90  68  48 SW10      29.83F
6HR MIN TEMP:  90; 6HR MAX TEMP:  93;

MANHATTAN      MOSUNNY   93  70  46 SW13      29.82F HX  99
6HR MIN TEMP:  91; 6HR MAX TEMP:  96;

OLATHE IND     SUNNY     91  67  44 SW10      29.85F
6HR MIN TEMP:  90; 6HR MAX TEMP:  94;

OLATHE EXE     SUNNY     89  67  47 SW6       29.84F
6HR MIN TEMP:  89; 6HR MAX TEMP:  92;

SALINA         SUNNY     92  69  47 S12       29.84F HX  97
6HR MIN TEMP:  92; 6HR MAX TEMP:  97;

TOPEKA BILLARD SUNNY     90  70  51 SW8       29.83F HX  95
6HR MIN TEMP:  90; 6HR MAX TEMP:  93;

TOPEKA FORBES  SUNNY     90  71  53 SW6       29.84S HX  96
6HR MIN TEMP:  90; 6HR MAX TEMP:  94;

$$



USA.gov is the U.S. government's official web portal to all federal, state and local government web resources and services.